Weather History for Poughkeepsie, NY

Change the Weather History Date:

Thursday, June 20, 2013

  Actual Average Record
Temperature  
Mean Temperature 64 °F 69 °F  
Max Temperature 80 °F 81 °F 96 °F (2012)
Min Temperature 47 °F 57 °F 45 °F (1956)
Degree Days  
Heating Degree Days 1 1  
Month to date heating degree days 31 42  
Since 1 June heating degree days 31 42  
Since 1 July heating degree days 5714 6204  
Cooling Degree Days 0 0  
Month to date cooling degree days 45 69  
Year to date cooling degree days 98 105  
Since 1 June cooling degree days 45 69  
Growing Degree Days 14 (Base 50)    
Moisture  
Dew Point 51 °F    
Average Humidity 66    
Maximum Humidity 96    
Minimum Humidity 35    
Precipitation  
Precipitation 0.00 in 0.14 in 0.75 in (1963)
Month to date precipitation 6.50 3.12  
Year to date precipitation 17.15 20.62  
Sea Level Pressure  
Sea Level Pressure 30.21 in    
Wind  
Wind Speed 2 mph (SSW)    
Max Wind Speed 12 mph    
Max Gust Speed 17 mph    
Visibility 10 miles    
Events      
T = Trace of Precipitation, MM = Missing Value Source: NWS Daily Summary

Daily Weather History Graph

Daily Weather History Graph

Search for Another Location

Airport:

Trip Planner

Search our weather history database for the weather conditions in past years. The results will help you decide how hot, cold, wet, or windy it might be!

Date:

Astronomy

Jun. 20, 2013 Rise Set
Actual Time 5:21 AM EDT 8:33 PM EDT
Civil Twilight 4:47 AM EDT 9:07 PM EDT
Nautical Twilight 4:03 AM EDT 9:51 PM EDT
Astronomical Twilight 3:10 AM EDT 10:44 PM EDT
Moon 5:31 PM EDT (6/20) 2:47 AM EDT (6/20)
Length of Visible Light 16h 20m
Length of Day
15h 11m
Waxing Gibbous, 89% of the Moon is Illuminated
Jun 20
Waxing Gibbous
Jun 23
Full
Jun 30
Last Quarter
Jul 8
New
Jul 15
First Quarter

Hourly Weather History & Observations

Time (EDT) Temp. Dew Point Humidity Pressure Visibility Wind Dir Wind Speed Gust Speed Precip Events Conditions
12:53 AM 53.1 °F 50.0 °F 89% 30.17 in 10.0 mi Calm Calm - N/A   Clear
1:53 AM 51.1 °F 50.0 °F 96% 30.18 in 10.0 mi Calm Calm - N/A   Clear
2:53 AM 51.1 °F 48.9 °F 92% 30.19 in 10.0 mi Calm Calm - N/A   Clear
3:53 AM 50.0 °F 48.0 °F 93% 30.20 in 10.0 mi Calm Calm - N/A   Clear
4:53 AM 48.9 °F 46.9 °F 93% 30.21 in 10.0 mi Calm Calm - N/A   Clear
5:53 AM 48.0 °F 46.0 °F 93% 30.23 in 10.0 mi Calm Calm - N/A   Clear
6:53 AM 51.1 °F 48.0 °F 89% 30.25 in 10.0 mi Calm Calm - N/A   Clear
7:53 AM 57.0 °F 51.1 °F 81% 30.25 in 10.0 mi Calm Calm - N/A   Clear
8:53 AM 62.1 °F 52.0 °F 70% 30.26 in 10.0 mi Calm Calm - N/A   Clear
9:53 AM 66.0 °F 52.0 °F 60% 30.25 in 10.0 mi Calm Calm - N/A   Clear
10:53 AM 70.0 °F 51.1 °F 51% 30.25 in 10.0 mi Calm Calm - N/A   Clear
11:53 AM 73.0 °F 51.1 °F 46% 30.24 in 10.0 mi Calm Calm - N/A   Clear
12:53 PM 77.0 °F 50.0 °F 39% 30.23 in 10.0 mi WSW 5.8 mph - N/A   Clear
1:53 PM 77.0 °F 50.0 °F 39% 30.22 in 10.0 mi Calm Calm - N/A   Clear
2:53 PM 79.0 °F 50.0 °F 36% 30.21 in 10.0 mi SSW 5.8 mph - N/A   Partly Cloudy
3:53 PM 80.1 °F 50.0 °F 35% 30.20 in 10.0 mi SSW 8.1 mph - N/A   Clear
4:53 PM 80.1 °F 52.0 °F 38% 30.19 in 10.0 mi Variable 5.8 mph - N/A   Clear
5:53 PM 79.0 °F 53.1 °F 40% 30.18 in 10.0 mi SSW 5.8 mph - N/A   Clear
6:53 PM 78.1 °F 54.0 °F 43% 30.19 in 10.0 mi SSE 4.6 mph - N/A   Partly Cloudy
7:53 PM 75.9 °F 54.0 °F 46% 30.19 in 10.0 mi South 4.6 mph - N/A   Clear
8:53 PM 72.0 °F 55.9 °F 57% 30.19 in 10.0 mi Variable 4.6 mph - N/A   Clear
9:53 PM 70.0 °F 55.0 °F 59% 30.21 in 10.0 mi Calm Calm - N/A   Clear
10:53 PM 66.0 °F 54.0 °F 65% 30.21 in 10.0 mi SE 4.6 mph - N/A   Clear
11:53 PM 64.9 °F 54.0 °F 68% 30.23 in 10.0 mi Calm Calm - N/A   Clear